Location: American Canyon
(38.1966°N, 122.1514°W)
Time: 11:58:38
(UTC+00:00)

METEOR-M - Pass Details

Date: 29 October 2020
Orbit: 815 x 820 km, 98.5° (Epoch: 01 December)

Event Time Altitude Azimuth Distance (km) Brightness Sun altitude
Rises 13:25:26 0° 6° (N) 3,351 7.3 -13.6°
Reaches altitude 10° 13:27:51 10° 0° (N) 2,415 6.5 -13.2°
Maximum altitude 13:32:56 46° 289° (WNW) 1,081 4.4 -12.2°
Drops below altitude 10° 13:37:59 10° 217° (SW) 2,399 6.3 -11.2°
Sets 13:40:24 0° 211° (SSW) 3,326 7.1 -10.7°
